Location: Gälforsberget
(66.6500°N, 22.4167°E)
Time: 08:06:55
(UTC+00:00)

SJ 16-02 - Pass Details

Date: 11 April 2026
Orbit: 582 x 592 km, 75.0° (Epoch: 14 May)

Event Time Altitude Azimuth Distance (km) Brightness Sun altitude
Rises 20:11:09 0° 312° (NW) 2,839 6.6 -10.6°
Reaches altitude 10° 20:13:29 10° 319° (NW) 1,934 5.5 -10.8°
Maximum altitude 20:17:37 43° 32° (NNE) 837 2.2 -11.0°
Drops below altitude 10° 20:21:43 10° 105° (ESE) 1,921 3.5 -11.2°
Enters shadow 20:21:59 - 106° (ESE) 2,022 3.6 -11.2°
